Weather History for Corinth, MS

Change the Weather History Date:

Tuesday, November 20, 2012

  Actual Average Record
Temperature  
Mean Temperature 55 °F -  
Max Temperature 69 °F 62 °F 78 °F (1942)
Min Temperature 41 °F 40 °F 23 °F (1951)
Degree Days  
Heating Degree Days 10    
Growing Degree Days 5 (Base 50)    
Moisture  
Dew Point 43 °F    
Average Humidity 72    
Maximum Humidity 93    
Minimum Humidity 37    
Precipitation  
Precipitation 0.00 in - - ()
Sea Level Pressure  
Sea Level Pressure 30.15 in    
Wind  
Wind Speed 2 mph (SW)    
Max Wind Speed 9 mph    
Max Gust Speed -    
Visibility 10 miles    
Events      
Averages and records for this station are not official NWS values.
T = Trace of Precipitation, MM = Missing Value Source: NWS Daily Summary

Daily Weather History Graph

Daily Weather History Graph

Search for Another Location

Airport:

Trip Planner

Search our weather history database for the weather conditions in past years. The results will help you decide how hot, cold, wet, or windy it might be!

Date:

Astronomy

Nov. 20, 2012 Rise Set
Actual Time 6:34 AM CST 4:46 PM CST
Civil Twilight 6:06 AM CST 5:13 PM CST
Nautical Twilight 5:36 AM CST 5:44 PM CST
Astronomical Twilight 5:05 AM CST 6:14 PM CST
Moon 12:16 PM CST (11/20) No Moon Set
Length of Visible Light 11h 06m
Length of Day
10h 11m
First Quarter, 51% of the Moon is Illuminated
Nov 20
First Quarter
Nov 28
Full
Dec 6
Last Quarter
Dec 13
New
Dec 19
First Quarter

Hourly Weather History & Observations

Time (CST) Temp. Windchill Dew Point Humidity Pressure Visibility Wind Dir Wind Speed Gust Speed Precip Events Conditions
12:05 AM 44.6 °F 42.2 °F 41.0 °F 87% 30.19 in 10.0 mi South 4.6 mph - N/A   Clear
12:25 AM 44.6 °F - 41.0 °F 87% 30.19 in 10.0 mi Calm Calm - N/A   Partly Cloudy
12:45 AM 44.6 °F - 41.0 °F 87% 30.18 in 10.0 mi Calm Calm - N/A   Clear
1:05 AM 44.6 °F - 41.0 °F 87% 30.19 in 10.0 mi Calm Calm - N/A   Clear
1:25 AM 42.8 °F - 39.2 °F 87% 30.19 in 10.0 mi Calm Calm - N/A   Clear
1:45 AM 41.0 °F - 39.2 °F 93% 30.19 in 10.0 mi Calm Calm - N/A   Clear
2:05 AM 41.0 °F - 39.2 °F 93% 30.18 in 10.0 mi Calm Calm - N/A   Clear
2:25 AM 42.8 °F 39.3 °F 41.0 °F 93% 30.18 in 10.0 mi South 5.8 mph - N/A   Scattered Clouds
2:45 AM 44.6 °F 43.1 °F 41.0 °F 87% 30.17 in 10.0 mi South 3.5 mph - N/A   Partly Cloudy
3:05 AM 41.0 °F - 39.2 °F 93% 30.18 in 10.0 mi Calm Calm - N/A   Mostly Cloudy
3:25 AM 41.0 °F 39.0 °F 39.2 °F 93% 30.18 in 10.0 mi NNW 3.5 mph - N/A   Overcast
3:45 AM 41.0 °F - 39.2 °F 93% 30.18 in 10.0 mi Calm Calm - N/A   Overcast
4:05 AM 44.6 °F - 41.0 °F 87% 30.18 in 10.0 mi Calm Calm - N/A   Overcast
4:25 AM 42.8 °F - 41.0 °F 93% 30.18 in 10.0 mi Calm Calm - N/A   Overcast
4:45 AM 42.8 °F - 41.0 °F 93% 30.19 in 10.0 mi Calm Calm - N/A   Overcast
5:05 AM 44.6 °F - 41.0 °F 87% 30.19 in 10.0 mi Calm Calm - N/A   Overcast
5:25 AM 44.6 °F - 41.0 °F 87% 30.20 in 10.0 mi Calm Calm - N/A   Overcast
5:45 AM 44.6 °F 43.1 °F 42.8 °F 93% 30.20 in 10.0 mi SSE 3.5 mph - N/A   Overcast
6:05 AM 44.6 °F - 41.0 °F 87% 30.20 in 10.0 mi Calm Calm - N/A   Overcast
6:25 AM 44.6 °F - 41.0 °F 87% 30.20 in 10.0 mi Calm Calm - N/A   Overcast
6:45 AM 44.6 °F - 41.0 °F 87% 30.20 in 10.0 mi Calm Calm - N/A   Overcast
7:05 AM 46.4 °F - 42.8 °F 87% 30.20 in 10.0 mi Calm Calm - N/A   Overcast
7:25 AM 46.4 °F 45.2 °F 42.8 °F 87% 30.21 in 10.0 mi SE 3.5 mph - N/A   Overcast
7:45 AM 48.2 °F - 44.6 °F 87% 30.21 in 10.0 mi SSE 3.5 mph - N/A   Overcast
8:05 AM 48.2 °F - 44.6 °F 87% 30.21 in 10.0 mi Calm Calm - N/A   Overcast
8:25 AM 50.0 °F - 44.6 °F 82% 30.20 in 10.0 mi Calm Calm - N/A   Overcast
8:45 AM 50.0 °F - 44.6 °F 82% 30.20 in 10.0 mi Calm Calm - N/A   Mostly Cloudy
9:05 AM 53.6 °F - 44.6 °F 72% 30.20 in 10.0 mi Calm Calm - N/A   Mostly Cloudy
9:25 AM 55.4 °F - 46.4 °F 72% 30.20 in 10.0 mi SE 3.5 mph - N/A   Scattered Clouds
9:45 AM 59.0 °F - 46.4 °F 63% 30.19 in 10.0 mi Calm Calm - N/A   Clear
10:05 AM 62.6 °F - 42.8 °F 48% 30.19 in 10.0 mi West 3.5 mph - N/A   Clear
10:25 AM 64.4 °F - 41.0 °F 42% 30.18 in 10.0 mi West 6.9 mph - N/A   Clear
10:45 AM 66.2 °F - 41.0 °F 40% 30.17 in 10.0 mi West 9.2 mph - N/A   Clear
11:05 AM 66.2 °F - 39.2 °F 37% 30.16 in 10.0 mi WNW 6.9 mph - N/A   Clear
11:25 AM 66.2 °F - 41.0 °F 40% 30.15 in 10.0 mi SW 6.9 mph - N/A   Scattered Clouds
11:45 AM 66.2 °F - 41.0 °F 40% 30.15 in 10.0 mi SW 5.8 mph - N/A   Overcast
12:25 PM 68.0 °F - 41.0 °F 37% 30.13 in 10.0 mi WNW 4.6 mph - N/A   Partly Cloudy
12:45 PM 68.0 °F - 42.8 °F 40% 30.12 in 10.0 mi WNW 4.6 mph - N/A   Partly Cloudy
1:05 PM 68.0 °F - 42.8 °F 40% 30.11 in 10.0 mi SSW 5.8 mph - N/A   Partly Cloudy
1:25 PM 69.8 °F - 44.6 °F 40% 30.10 in 10.0 mi SW 4.6 mph - N/A   Partly Cloudy
1:45 PM 69.8 °F - 44.6 °F 40% 30.09 in 10.0 mi SSW 6.9 mph - N/A   Clear
2:05 PM 69.8 °F - 44.6 °F 40% 30.09 in 10.0 mi WSW 8.1 mph - N/A   Clear
2:25 PM 69.8 °F - 44.6 °F 40% 30.09 in 10.0 mi West 5.8 mph - N/A   Clear
2:45 PM 69.8 °F - 44.6 °F 40% 30.08 in 10.0 mi SW 3.5 mph - N/A   Clear
3:05 PM 69.8 °F - 44.6 °F 40% 30.09 in 10.0 mi West 8.1 mph - N/A   Clear
3:45 PM 68.0 °F - 44.6 °F 43% 30.09 in 10.0 mi WSW 4.6 mph - N/A   Partly Cloudy
4:05 PM 68.0 °F - 46.4 °F 46% 30.08 in 10.0 mi SW 4.6 mph - N/A   Partly Cloudy
4:25 PM 66.2 °F - 44.6 °F 46% 30.08 in 10.0 mi SW 3.5 mph - N/A   Clear
4:45 PM 64.4 °F - 44.6 °F 49% 30.08 in 10.0 mi SSW 3.5 mph - N/A   Clear
5:05 PM 62.6 °F - 46.4 °F 55% 30.09 in 10.0 mi Calm Calm - N/A   Clear
5:25 PM 59.0 °F - 46.4 °F 63% 30.09 in 10.0 mi Calm Calm - N/A   Clear
5:45 PM 55.4 °F - 46.4 °F 72% 30.09 in 10.0 mi Calm Calm - N/A   Clear
6:05 PM 57.2 °F - 46.4 °F 67% 30.10 in 10.0 mi Calm Calm - N/A   Clear
6:25 PM 53.6 °F - 46.4 °F 77% 30.11 in 10.0 mi Calm Calm - N/A   Partly Cloudy
6:45 PM 50.0 °F - 44.6 °F 82% 30.11 in 10.0 mi Calm Calm - N/A   Mostly Cloudy
7:05 PM 51.8 °F - 46.4 °F 82% 30.12 in 10.0 mi Calm Calm - N/A   Overcast
7:25 PM 51.8 °F - 46.4 °F 82% 30.12 in 10.0 mi Calm Calm - N/A   Mostly Cloudy
7:45 PM 51.8 °F - 46.4 °F 82% 30.12 in 10.0 mi Calm Calm - N/A   Mostly Cloudy
8:05 PM 50.0 °F - 44.6 °F 82% 30.13 in 10.0 mi Calm Calm - N/A   Mostly Cloudy
8:25 PM 50.0 °F - 44.6 °F 82% 30.13 in 10.0 mi Calm Calm - N/A   Mostly Cloudy
8:45 PM 50.0 °F - 44.6 °F 82% 30.13 in 10.0 mi Calm Calm - N/A   Mostly Cloudy
9:05 PM 50.0 °F - 44.6 °F 82% 30.13 in 10.0 mi SSE 3.5 mph - N/A   Mostly Cloudy
9:25 PM 48.2 °F - 44.6 °F 87% 30.13 in 10.0 mi Calm Calm - N/A   Mostly Cloudy
9:45 PM 48.2 °F - 44.6 °F 87% 30.13 in 10.0 mi Calm Calm - N/A   Mostly Cloudy
10:05 PM 50.0 °F - 44.6 °F 82% 30.13 in 10.0 mi Calm Calm - N/A   Mostly Cloudy
10:25 PM 48.2 °F - 46.4 °F 93% 30.13 in 10.0 mi Calm Calm - N/A   Mostly Cloudy
10:45 PM 50.0 °F - 46.4 °F 87% 30.13 in 10.0 mi Calm Calm - N/A   Overcast
11:05 PM 48.2 °F - 44.6 °F 87% 30.13 in 10.0 mi Calm Calm - N/A   Mostly Cloudy
11:25 PM 48.2 °F - 44.6 °F 87% 30.13 in 10.0 mi Calm Calm - N/A   Partly Cloudy
11:45 PM 48.2 °F - 44.6 °F 87% 30.13 in 10.0 mi Calm Calm - N/A   Clear